Location: Newark
(48.6461°N, 4.3644°W)
Time: 00:54:15
(UTC+00:00)

Transit 4A - Pass Details

Date: 28 January 2020
Orbit: 872 x 973 km, 66.8° (Epoch: 27 February)

Event Time Altitude Azimuth Distance (km) Brightness Sun altitude
Rises 04:46:02 0° 163° (SSE) 3,542 11.1 -30.8°
Reaches altitude 10° 04:49:22 10° 145° (SE) 2,586 10.5 -30.2°
Maximum altitude 04:53:12 18° 105° (ESE) 2,061 10.4 -29.6°
Drops below altitude 10° 04:57:00 10° 65° (ENE) 2,558 11.0 -29.0°
Sets 05:00:16 0° 47° (NE) 3,489 11.6 -28.4°
